Location: Caltech
(34.1382°N, 118.1253°W)
Time: 13:19:34
(UTC-07:00)

FENGYUN 3A - Visible Passes

Search period start: 01 October 2014 00:00
Search period end: 11 October 2014 00:00
Orbit: 821 x 833 km, 98.5° (Epoch: 01 October)

Date Brightness Start Highest point End Pass type
(mag) Time Alt. Az. Time Alt. Az. Time Alt. Az.
01 Oct 6.3 22:03:54 12° NNW 22:03:54 12° NNW 22:04:17 10° NNW visible
02 Oct 6.2 21:45:05 13° N 21:45:05 13° N 21:45:36 10° N visible
03 Oct 6.1 21:26:16 13° N 21:26:16 13° N 21:26:45 10° N visible
04 Oct 6.1 21:07:27 11° N 21:07:27 11° N 21:07:44 10° N visible
